Flag for Argentina Weather past 2 weeks in Mendoza, Mendoza, Argentina

Now
72 °F

Passing clouds.


Feels Like: 75 °F
Forecast: 63 / 86 °F
Wind: No wind

Location: Mendoza Aerodrome

Current Time: Mar 5, 2015 at 2:17:10 AM

Latest Report: Mar 5, 2015 at 1:00 AM


Visibility: N/A

Pressure: 29.95 "Hg

Humidity: 69%

Dew point: 61 °F

Location of MendozaLocation

Historic Weather in Mendoza — Graph

°F

Mendoza temperature yesterday

Maximum temperature yesterday: 84 °F (at 5:00 PM)
Minimum temperature yesterday: 68 °F (at 2:00 AM)
Average temperature yesterday: 75 °F

Past Weeks' High & Low Weather Summary

 TemperatureHumidityPressure
High91 °F (Feb 23, 6:00 PM)100% (Feb 18, 7:00 AM)30.27 "Hg (Feb 18, 7:00 AM)
Low54 °F (Feb 18, 12:00 PM)27% (Feb 18, 4:00 PM)29.68 "Hg (Feb 18, 12:00 AM)
Average69 °F64%29.96 "Hg
* Reported Midnight between Feb 17 and Feb 18 — Midnight between Mar 4 and Mar 5, Mendoza, Weather by CustomWeather, © 2015

Note: Actual official high and low records may vary slightly from our data, if they occured in-between our weather recording intervals... More about our weather records

Advertising

Mendoza weather history for previous 24 hours

 ConditionsComfort  
Time TempWeatherWind HumidityBarometerVisibility
12:00 AM
Thu, Mar 5
73 °FClear.No wind65%29.95 "Hg10 mi
11:00 PM
Wed, Mar 4
75 °FClear.No wind65%29.92 "Hg10 mi
10:00 PM75 °FPassing clouds.No wind61%30.01 "HgN/A
9:00 PM77 °FPassing clouds.No wind57%29.89 "HgN/A
8:00 PM81 °FPassing clouds.No wind51%29.89 "HgN/A
7:00 PM82 °FScattered clouds.2 mph48%29.86 "HgN/A
6:00 PM82 °FScattered clouds.5 mph48%29.86 "HgN/A
5:00 PM84 °FScattered clouds.7 mph43%29.86 "HgN/A
4:00 PM81 °FScattered clouds.7 mph51%29.89 "HgN/A
3:00 PM82 °FScattered clouds.5 mph45%29.92 "HgN/A
2:00 PM81 °FScattered clouds.5 mph45%29.92 "HgN/A
1:00 PM79 °FScattered clouds.5 mph48%29.95 "HgN/A
12:00 PM77 °FPartly sunny.2 mph51%29.95 "HgN/A
11:00 AM75 °FPartly sunny.No wind54%29.95 "HgN/A
10:00 AM72 °FPartly sunny.No wind61%29.95 "HgN/A
9:00 AM70 °FPartly sunny.No wind64%29.95 "HgN/A
8:00 AM68 °FPartly sunny.No wind69%29.92 "HgN/A
7:00 AM68 °FOvercast.No wind64%29.92 "HgN/A
6:00 AM68 °FPassing clouds.No wind64%29.92 "HgN/A
5:00 AM68 °FOvercast.No wind60%29.89 "HgN/A
4:00 AM68 °FOvercast.2 mph64%29.92 "HgN/A
3:00 AM70 °FOvercast.2 mph60%29.92 "HgN/A
2:00 AM68 °FPassing clouds.No wind64%29.92 "HgN/A
Weather by CustomWeather, © 2015

See weather overviewHow to use our weather pages